Location: Newark
(34.9471°N, 136.1778°E)
Time: 04:31:42
(UTC+00:00)

METEOR M2 - Pass Details

Date: 23 February 2020
Orbit: 818 x 828 km, 98.5° (Epoch: 04 April)

Event Time Altitude Azimuth Distance (km) Brightness Sun altitude
Exits shadow 09:31:11 - 113° (ESE) 2,498 ? -10.3°
Reaches altitude 10° 09:31:27 10° 111° (ESE) 2,424 ? -10.3°
Maximum altitude 09:35:12 20° 66° (ENE) 1,834 ? -11.1°
Drops below altitude 10° 09:39:00 10° 21° (NNE) 2,436 ? -11.8°
Sets 09:41:56 0° 5° (N) 3,373 ? -12.5°
